QPF
0.00 0.00 0.00 0.00 0.00 0.00 0.00 0.00 0.00 0.00 0.00 0.00 0.00 0.00 0.00 0.00 0.00 0.00 0.00 0.00 0.00 0.00 0.00 0.00 0.00 0.00 0.00 0.00 0.00 0.00 0.00 0.00 0.00 0.00 0.00 0.00 0.00 0.00 0.01 0.01 0.01 0.00 0.00
0.00 0.00 0.00 0.00 0.00 0.00 0.00 0.00 0.00 0.00 0.00 0.00 0.00 0.00 0.00 0.00 0.00 0.00 0.00 0.00 0.00 0.00 0.00 0.00 0.00 0.00 0.00 0.00 0.00 0.00 0.00 0.00 0.00 0.00 0.00 0.00 0.00 0.00 0.00 0.00 0.00 0.00 0.00
0.00 0.00 0.00 0.00 0.00 0.00 0.00 0.00 0.01 0.00 0.00 0.00 0.00 0.00 0.00 0.00 0.00 0.00 0.00 0.00 0.00 0.00 0.00 0.00 0.00 0.00 0.00 0.00 0.00 0.00 0.00 0.00 0.00 0.00 0.00 0.00 0.00 0.00 0.00 0.00 0.00 0.00 0.00
0.00 0.00 0.00 0.00 0.00 0.00 0.00 0.00 0.00 0.00 0.00 0.00 0.00 0.00 0.00 0.00 0.00 0.00 0.00 0.00 0.00 0.00 0.00 0.00 0.00 0.00 0.00 0.00 0.00 0.00 0.00 0.00 0.00 0.00 0.00 0.00 0.00 0.00 0.00 0.00 0.00 0.00 0.00
0.01 0.06 0.00 0.00 0.00 0.00 0.00 0.00 0.00 0.00 0.00 0.00 0.00 0.00 0.00 0.00 0.00 0.00 0.00 0.00 0.00 0.00 0.00 0.00 0.00 0.00 0.00 0.00 0.00 0.00 0.00 0.00 0.00 0.00 0.00 0.00 0.00 0.00 0.00 0.00 0.00 0.00 0.00
0.00 0.03 0.00 0.00 0.00 0.00 0.00 0.00 0.00 0.00 0.00 0.00 0.00 0.00 0.00 0.00 0.00 0.00 0.00 0.00 0.00 0.00 0.00 0.00 0.00 0.00 0.00 0.00 0.00 0.00 0.00 0.00 0.00 0.00 0.00 0.00 0.00 0.00 0.00 0.00 0.00 0.00 0.00
0.01 0.00 0.01 0.01 0.00 0.00 0.00 0.00 0.00 0.00 0.00 0.00 0.00 0.00 0.00 0.00 0.00 0.00 0.00 0.00 0.00 0.00 0.00 0.00 0.00 0.00 0.00 0.00 0.00 0.00 0.00 0.00 0.00 0.00 0.00 0.00 0.00 0.00 0.00 0.00 0.00 0.00 0.00
0.10 0.02 0.00 0.02 0.00 0.00 0.00 0.00 0.00 0.00 0.00 0.00 0.00 0.00 0.00 0.00 0.00 0.00 0.00 0.00 0.00 0.00 0.00 0.00 0.00 0.00 0.00 0.00 0.00 0.00 0.00 0.00 0.00 0.00 0.00 0.00 0.00 0.00 0.00 0.00 0.00 0.00 0.00
0.03 0.05 0.01 0.02 0.01 0.00 0.00 0.00 0.00 0.00 0.00 0.00 0.00 0.00 0.00 0.00 0.00 0.00 0.00 0.00 0.00 0.00 0.00 0.00 0.00 0.00 0.00 0.00 0.00 0.00 0.00 0.00 0.00 0.00 0.00 0.00 0.00 0.00 0.00 0.00 0.00 0.00 0.00
0.02 0.05 0.04 0.02 0.01 0.00 0.00 0.00 0.00 0.00 0.00 0.00 0.00 0.00 0.00 0.00 0.00 0.00 0.00 0.00 0.00 0.00 0.00 0.00 0.00 0.00 0.00 0.00 0.00 0.00 0.00 0.00 0.00 0.00 0.00 0.00 0.00 0.00 0.00 0.00 0.00 0.00 0.00
0.00 0.03 0.03 0.02 0.00 0.00 0.00 0.00 0.00 0.00 0.00 0.00 0.00 0.00 0.00 0.00 0.00 0.00 0.00 0.00 0.00 0.00 0.00 0.00 0.00 0.00 0.00 0.00 0.00 0.00 0.00 0.00 0.00 0.00 0.00 0.00 0.00 0.00 0.00 0.01 0.01 0.00 0.00
0.00 0.00 0.00 0.02 0.01 0.00 0.00 0.00 0.00 0.00 0.00 0.00 0.00 0.00 0.00 0.00 0.00 0.00 0.00 0.00 0.00 0.00 0.00 0.00 0.00 0.00 0.00 0.00 0.00 0.00 0.00 0.00 0.00 0.00 0.00 0.00 0.00 0.01 0.01 0.02 0.03 0.02 0.00
0.00 0.00 0.00 0.00 0.04 0.00 0.00 0.00 0.00 0.00 0.00 0.00 0.00 0.00 0.00 0.00 0.00 0.00 0.00 0.00 0.00 0.00 0.00 0.00 0.00 0.00 0.00 0.00 0.00 0.00 0.00 0.00 0.00 0.00 0.00 0.00 0.00 0.00 0.00 0.00 0.01 0.02 0.00
0.00 0.00 0.00 0.00 0.01 0.02 0.00 0.00 0.00 0.00 0.00 0.00 0.00 0.00 0.00 0.00 0.00 0.00 0.00 0.00 0.00 0.00 0.00 0.00 0.00 0.00 0.00 0.00 0.00 0.00 0.00 0.00 0.00 0.00 0.00 0.00 0.00 0.00 0.00 0.00 0.00 0.00 0.00
0.00 0.00 0.01 0.00 0.00 0.02 0.01 0.00 0.00 0.00 0.00 0.00 0.00 0.00 0.00 0.00 0.00 0.00 0.00 0.00 0.00 0.00 0.00 0.00 0.00 0.00 0.00 0.00 0.00 0.00 0.00 0.00 0.00 0.00 0.00 0.00 0.00 0.00 0.00 0.00 0.00 0.00 0.00
0.00 0.00 0.01 0.03 0.03 0.03 0.00 0.00 0.00 0.00 0.00 0.00 0.00 0.00 0.00 0.00 0.00 0.00 0.00 0.00 0.00 0.00 0.00 0.00 0.00 0.00 0.00 0.00 0.00 0.00 0.00 0.00 0.00 0.00 0.00 0.00 0.00 0.00 0.00 0.00 0.00 0.00 0.00
0.00 0.00 0.00 0.00 0.01 0.02 0.02 0.04 0.01 0.00 0.00 0.00 0.00 0.00 0.00 0.00 0.00 0.00 0.00 0.00 0.00 0.00 0.00 0.00 0.00 0.00 0.00 0.00 0.00 0.00 0.00 0.00 0.00 0.00 0.00 0.00 0.00 0.00 0.00 0.00 0.00 0.00 0.00
0.00 0.00 0.00 0.00 0.00 0.00 0.00 0.00 0.00 0.00 0.00 0.00 0.00 0.00 0.00 0.00 0.00 0.00 0.00 0.00 0.00 0.00 0.00 0.00 0.00 0.00 0.00 0.00 0.00 0.00 0.00 0.00 0.00 0.00 0.00 0.00 0.00 0.00 0.00 0.00 0.00 0.00 0.00
0.00 0.00 0.00 0.00 0.00 0.00 0.00 0.00 0.00 0.00 0.00 0.00 0.00 0.00 0.00 0.00 0.00 0.00 0.00 0.00 0.00 0.00 0.00 0.00 0.00 0.00 0.00 0.00 0.00 0.00 0.00 0.00 0.00 0.00 0.00 0.00 0.00 0.00 0.00 0.00 0.00 0.00 0.00
0.00 0.00 0.00 0.00 0.00 0.00 0.00 0.00 0.00 0.00 0.00 0.00 0.00 0.00 0.00 0.00 0.00 0.00 0.00 0.00 0.00 0.00 0.00 0.00 0.00 0.00 0.00 0.00 0.00 0.00 0.00 0.00 0.00 0.00 0.00 0.00 0.00 0.00 0.00 0.00 0.00 0.00 0.00
0.00 0.00 0.00 0.00 0.00 0.00 0.00 0.00 0.00 0.00 0.00 0.00 0.00 0.00 0.00 0.00 0.00 0.00 0.00 0.00 0.00 0.00 0.00 0.00 0.00 0.00 0.00 0.00 0.00 0.00 0.00 0.00 0.00 0.00 0.00 0.00 0.00 0.00 0.00 0.00 0.00 0.00 0.00
0.00 0.00 0.00 0.00 0.00 0.00 0.00 0.00 0.00 0.00 0.00 0.00 0.00 0.00 0.00 0.00 0.00 0.00 0.00 0.00 0.00 0.00 0.00 0.00 0.00 0.00 0.00 0.00 0.00 0.00 0.00 0.00 0.00 0.00 0.00 0.00 0.00 0.00 0.00 0.00 0.00 0.00 0.00
0.00 0.00 0.00 0.00 0.00 0.00 0.00 0.00 0.00 0.00 0.00 0.00 0.00 0.00 0.00 0.00 0.00 0.00 0.00 0.00 0.00 0.00 0.00 0.00 0.00 0.00 0.00 0.00 0.00 0.00 0.00 0.00 0.00 0.00 0.00 0.00 0.00 0.00 0.00 0.00 0.00 0.00 0.00
0.00 0.00 0.00 0.00 0.00 0.00 0.00 0.00 0.00 0.00 0.00 0.00 0.00 0.00 0.00 0.00 0.00 0.00 0.00 0.00 0.00 0.00 0.00 0.00 0.00 0.00 0.00 0.00 0.00 0.00 0.00 0.00 0.00 0.00 0.00 0.00 0.00 0.00 0.00 0.00 0.00 0.00 0.00
0.00 0.00 0.00 0.00 0.00 0.00 0.00 0.00 0.00 0.00 0.00 0.00 0.00 0.00 0.00 0.00 0.00 0.00 0.00 0.00 0.00 0.00 0.00 0.00 0.00 0.00 0.00 0.00 0.00 0.00 0.00 0.00 0.00 0.00 0.00 0.00 0.00 0.00 0.00 0.00 0.00 0.00 0.00
0.00 0.00 0.00 0.00 0.00 0.00 0.00 0.00 0.00 0.00 0.00 0.00 0.00 0.00 0.00 0.00 0.00 0.00 0.00 0.00 0.00 0.00 0.00 0.00 0.00 0.00 0.00 0.00 0.00 0.00 0.00 0.00 0.00 0.00 0.00 0.00 0.00 0.00 0.00 0.00 0.00 0.00 0.00
MSLP
1021.49 1021.68 1021.82 1021.88 1022.14 1022.23 1022.17 1022.29 1022.41 1022.52 1022.56 1022.36 1022.31 1022.42 1022.66 1022.85 1022.99 1023.08 1023.08 1023.00 1023.02 1023.05 1023.03 1023.15 1023.25 1023.27 1023.28 1023.28 1023.30 1023.26 1023.24 1023.19 1023.14 1023.08 1023.00 1022.89 1022.70 1022.47 1022.28 1022.12 1022.01 1021.97 1021.93
1021.58 1021.76 1021.91 1021.96 1022.14 1022.33 1022.32 1022.40 1022.60 1022.65 1022.62 1022.45 1022.44 1022.68 1022.88 1023.00 1023.14 1023.22 1023.31 1023.32 1023.17 1023.20 1023.28 1023.24 1023.26 1023.26 1023.30 1023.30 1023.30 1023.23 1023.28 1023.21 1023.10 1023.04 1022.98 1022.83 1022.63 1022.50 1022.38 1022.26 1022.22 1022.10 1021.99
1021.60 1021.72 1022.00 1022.16 1022.08 1022.17 1022.26 1022.37 1022.64 1022.59 1022.55 1022.54 1022.78 1022.96 1023.04 1023.17 1023.19 1023.40 1023.46 1023.47 1023.35 1023.33 1023.28 1023.24 1023.23 1023.21 1023.24 1023.25 1023.24 1023.20 1023.20 1023.14 1023.00 1022.96 1022.90 1022.75 1022.57 1022.47 1022.39 1022.38 1022.30 1022.17 1022.00
1021.62 1021.80 1022.02 1022.15 1022.16 1022.21 1022.23 1022.27 1022.48 1022.59 1022.79 1022.86 1023.14 1023.29 1023.27 1023.27 1023.22 1023.42 1023.49 1023.53 1023.43 1023.33 1023.30 1023.13 1023.10 1023.10 1023.14 1023.18 1023.14 1023.11 1023.08 1022.96 1022.92 1022.89 1022.79 1022.65 1022.47 1022.44 1022.40 1022.36 1022.25 1022.14 1021.98
1021.64 1021.95 1021.98 1022.13 1022.14 1022.26 1022.44 1022.49 1022.74 1022.87 1023.07 1023.14 1023.33 1023.39 1023.34 1023.30 1023.29 1023.25 1023.42 1023.43 1023.40 1023.31 1023.24 1023.16 1023.08 1023.02 1023.00 1023.01 1022.96 1022.96 1022.87 1022.77 1022.68 1022.62 1022.55 1022.44 1022.29 1022.32 1022.29 1022.22 1022.16 1022.10 1021.97
1021.50 1022.00 1021.94 1022.03 1022.12 1022.28 1022.53 1022.55 1022.86 1023.11 1023.22 1023.46 1023.53 1023.59 1023.46 1023.21 1023.17 1023.22 1023.20 1023.23 1023.30 1023.20 1023.10 1023.06 1023.01 1022.90 1022.90 1022.88 1022.86 1022.78 1022.64 1022.52 1022.40 1022.29 1022.22 1022.16 1022.09 1022.07 1022.11 1022.12 1022.06 1021.95 1021.86
1021.56 1021.71 1021.92 1022.10 1022.16 1022.38 1022.57 1022.69 1022.91 1023.26 1023.51 1023.61 1023.76 1023.70 1023.42 1023.16 1023.04 1022.94 1022.98 1023.05 1023.09 1023.05 1022.98 1022.85 1022.79 1022.68 1022.62 1022.63 1022.59 1022.50 1022.40 1022.27 1022.09 1022.04 1021.92 1021.85 1021.87 1021.87 1021.93 1022.02 1021.99 1021.83 1021.71
1021.65 1021.74 1021.85 1021.98 1022.10 1022.38 1022.52 1022.74 1022.94 1023.27 1023.47 1023.60 1023.92 1024.24 1024.05 1023.44 1022.97 1022.83 1022.76 1022.79 1022.72 1022.79 1022.60 1022.53 1022.46 1022.42 1022.41 1022.36 1022.24 1022.19 1022.11 1022.00 1021.87 1021.71 1021.62 1021.58 1021.58 1021.61 1021.67 1021.66 1021.60 1021.46 1021.38
1021.30 1021.61 1021.68 1021.90 1022.14 1022.39 1022.62 1022.72 1022.84 1023.08 1023.42 1023.74 1023.84 1024.17 1024.38 1024.24 1023.78 1022.89 1022.68 1022.64 1022.53 1022.50 1022.33 1022.21 1022.07 1022.03 1022.08 1022.09 1022.04 1021.93 1021.81 1021.78 1021.66 1021.46 1021.32 1021.18 1021.14 1021.09 1021.07 1021.08 1021.05 1020.95 1020.84
1021.12 1021.28 1021.76 1021.91 1022.10 1022.36 1022.47 1022.60 1022.67 1023.01 1023.26 1023.61 1023.94 1024.08 1024.13 1024.18 1024.08 1023.69 1022.90 1022.58 1022.42 1022.32 1022.14 1022.00 1021.83 1021.70 1021.73 1021.70 1021.63 1021.54 1021.46 1021.47 1021.40 1021.17 1020.94 1020.78 1020.61 1020.54 1020.48 1020.45 1020.39 1020.22 1020.16
1020.91 1021.18 1021.39 1021.78 1022.09 1022.28 1022.41 1022.44 1022.70 1022.88 1023.06 1023.48 1023.76 1023.97 1024.05 1024.10 1024.06 1024.04 1023.63 1023.04 1022.52 1022.20 1021.98 1021.85 1021.64 1021.50 1021.43 1021.40 1021.27 1021.10 1021.01 1020.93 1020.83 1020.63 1020.47 1020.25 1019.96 1019.86 1019.69 1019.60 1019.49 1019.31 1019.25
1020.82 1020.98 1021.16 1021.57 1021.86 1022.11 1022.32 1022.40 1022.47 1022.75 1023.02 1023.26 1023.54 1023.78 1023.93 1023.96 1023.85 1023.86 1023.91 1023.58 1023.36 1022.42 1021.96 1021.68 1021.52 1021.38 1021.23 1021.12 1020.96 1020.76 1020.65 1020.51 1020.36 1020.22 1019.96 1019.62 1019.39 1019.21 1018.94 1018.66 1018.46 1018.38 1018.17
1020.72 1020.83 1020.99 1021.44 1021.89 1021.97 1022.19 1022.38 1022.45 1022.67 1022.88 1023.16 1023.32 1023.52 1023.72 1023.73 1023.69 1023.67 1023.82 1023.69 1023.55 1022.83 1022.22 1021.63 1021.32 1021.22 1021.04 1020.94 1020.76 1020.61 1020.36 1020.30 1020.12 1019.81 1019.52 1019.18 1018.86 1018.64 1018.53 1018.18 1017.90 1017.78 1017.64
1020.13 1020.24 1020.60 1020.99 1021.36 1021.82 1022.02 1022.25 1022.44 1022.57 1022.64 1023.02 1023.20 1023.31 1023.44 1023.49 1023.50 1023.55 1023.68 1023.72 1023.56 1023.30 1022.79 1022.16 1021.42 1021.27 1021.11 1020.94 1020.75 1020.56 1020.32 1020.10 1019.90 1019.69 1019.27 1018.88 1018.48 1018.18 1018.02 1017.76 1017.50 1017.33 1017.19
1019.60 1019.85 1020.23 1020.61 1021.01 1021.43 1021.76 1021.99 1022.35 1022.48 1022.66 1022.94 1023.10 1023.21 1023.32 1023.32 1023.36 1023.39 1023.49 1023.66 1023.70 1023.65 1023.20 1022.36 1022.01 1021.39 1021.17 1020.94 1020.76 1020.55 1020.32 1019.96 1019.74 1019.42 1019.06 1018.68 1018.35 1017.97 1017.60 1017.39 1017.22 1017.02 1016.84
1019.35 1019.62 1019.95 1020.26 1020.64 1020.98 1021.28 1021.64 1022.05 1022.14 1022.47 1022.71 1022.94 1023.14 1023.21 1023.26 1023.31 1023.34 1023.39 1023.61 1023.63 1023.60 1023.42 1022.84 1022.24 1021.82 1021.28 1020.96 1020.68 1020.48 1020.15 1019.97 1019.50 1019.26 1018.86 1018.46 1018.10 1017.64 1017.35 1017.23 1016.96 1016.75 1016.58
1019.02 1019.38 1019.70 1020.02 1020.42 1020.70 1020.85 1021.28 1021.55 1021.87 1022.16 1022.43 1022.66 1022.82 1022.91 1023.05 1023.21 1023.26 1023.29 1023.44 1023.45 1023.36 1023.24 1022.72 1022.52 1021.80 1021.43 1021.10 1020.54 1020.26 1019.97 1019.64 1019.36 1018.99 1018.65 1018.18 1017.80 1017.48 1017.42 1017.07 1016.81 1016.66 1016.56
1018.48 1018.89 1019.32 1019.68 1019.94 1020.29 1020.62 1020.94 1021.22 1021.41 1021.79 1022.06 1022.22 1022.48 1022.48 1022.64 1022.77 1022.89 1023.03 1023.20 1023.22 1023.20 1023.16 1022.77 1022.35 1021.90 1021.50 1020.91 1020.69 1020.24 1019.77 1019.47 1019.36 1018.69 1018.41 1018.05 1017.70 1017.50 1017.47 1017.16 1016.96 1016.90 1016.81
1017.92 1018.33 1018.84 1019.26 1019.56 1019.78 1020.15 1020.40 1020.66 1020.95 1021.16 1021.40 1021.66 1021.96 1021.97 1022.17 1022.29 1022.43 1022.61 1022.74 1022.80 1022.80 1022.87 1022.78 1022.39 1022.07 1021.54 1021.03 1020.51 1020.03 1019.71 1019.32 1019.21 1018.65 1018.28 1017.88 1017.58 1017.44 1017.47 1017.46 1017.40 1017.24 1017.10
1017.40 1017.57 1018.01 1018.54 1018.88 1019.16 1019.50 1019.83 1020.16 1020.42 1020.64 1020.80 1021.05 1021.28 1021.44 1021.60 1021.71 1021.85 1022.06 1022.16 1022.23 1022.33 1022.36 1022.38 1022.12 1021.75 1021.43 1020.93 1020.81 1020.37 1019.75 1019.51 1019.07 1018.36 1017.95 1017.84 1017.58 1017.50 1017.67 1017.66 1017.50 1017.39 1017.28
1016.89 1017.10 1017.29 1017.68 1018.16 1018.52 1018.78 1019.10 1019.44 1019.71 1020.02 1020.20 1020.34 1020.57 1020.70 1020.64 1020.92 1020.96 1021.48 1021.47 1021.75 1021.82 1021.83 1021.75 1021.56 1021.38 1021.04 1020.82 1020.64 1020.36 1020.20 1019.60 1018.89 1018.68 1018.15 1017.57 1017.20 1017.16 1017.56 1017.83 1017.80 1017.66 1017.52
1016.27 1016.63 1016.83 1016.92 1017.19 1017.56 1017.78 1018.13 1018.58 1018.99 1019.20 1019.48 1019.66 1019.86 1019.99 1020.26 1020.51 1020.50 1020.69 1020.73 1021.14 1021.29 1021.32 1021.30 1021.04 1020.82 1020.47 1020.51 1020.28 1020.25 1020.02 1019.72 1018.99 1018.45 1018.38 1017.32 1017.06 1017.14 1017.40 1017.78 1018.10 1017.89 1017.75
1015.34 1015.78 1015.89 1016.24 1016.42 1016.60 1016.85 1017.20 1017.57 1018.01 1018.30 1018.50 1018.76 1019.04 1019.30 1019.47 1019.70 1020.02 1020.14 1020.20 1020.30 1020.41 1020.59 1020.47 1020.30 1020.09 1019.89 1019.79 1019.78 1019.67 1019.70 1019.60 1019.12 1018.45 1018.50 1017.64 1017.03 1017.05 1017.22 1017.61 1017.98 1017.96 1017.96
1014.46 1014.81 1015.16 1015.20 1015.46 1015.67 1015.96 1016.31 1016.62 1017.03 1017.26 1017.35 1017.60 1017.91 1018.23 1018.51 1018.77 1019.12 1019.36 1019.44 1019.43 1019.43 1019.39 1019.46 1019.42 1019.09 1018.91 1018.85 1019.03 1019.14 1019.22 1019.11 1018.78 1018.15 1018.10 1017.54 1016.69 1016.58 1017.16 1017.37 1017.89 1017.76 1017.75
1013.63 1013.75 1014.05 1014.38 1014.50 1014.58 1014.90 1015.32 1015.92 1016.28 1016.34 1016.35 1016.58 1016.82 1017.13 1017.51 1017.77 1018.12 1018.62 1018.62 1018.54 1018.23 1018.03 1018.34 1018.31 1018.16 1018.13 1018.32 1018.49 1018.87 1018.82 1018.84 1018.01 1017.66 1017.51 1017.50 1016.76 1016.78 1017.13 1017.18 1017.56 1017.87 1017.91
1012.60 1012.84 1013.05 1013.14 1013.16 1013.38 1013.76 1014.11 1014.89 1015.37 1015.50 1015.52 1015.64 1015.88 1016.08 1016.38 1016.77 1017.30 1017.73 1017.79 1017.77 1017.31 1017.44 1017.26 1017.66 1017.62 1017.63 1017.44 1017.96 1018.15 1018.12 1018.11 1017.78 1017.39 1016.94 1017.32 1016.91 1016.97 1016.65 1016.64 1016.76 1017.36 1017.46
Thickness
5747 5747 5747 5745 5743 5742 5742 5741 5740 5740 5740 5742 5742 5741 5738 5735 5735 5735 5735 5735 5736 5736 5736 5736 5736 5736 5736 5736 5736 5736 5735 5735 5736 5735 5735 5736 5737 5736 5735 5733 5731 5728 5724
5749 5748 5748 5748 5746 5745 5744 5743 5741 5741 5743 5744 5743 5741 5740 5738 5738 5738 5738 5738 5739 5739 5738 5739 5739 5739 5739 5739 5739 5739 5738 5739 5740 5740 5739 5739 5740 5738 5736 5734 5731 5729 5726
5752 5751 5749 5748 5749 5749 5748 5746 5744 5744 5746 5745 5744 5742 5742 5741 5741 5740 5741 5741 5742 5742 5742 5742 5742 5742 5742 5742 5742 5742 5743 5743 5744 5743 5743 5743 5742 5740 5739 5736 5733 5730 5728
5752 5752 5751 5750 5750 5750 5750 5750 5749 5749 5747 5746 5744 5743 5744 5745 5745 5744 5744 5745 5746 5746 5746 5747 5747 5747 5746 5746 5746 5747 5747 5748 5748 5747 5747 5746 5745 5743 5741 5738 5736 5733 5730
5754 5751 5753 5751 5751 5751 5750 5749 5749 5749 5748 5748 5746 5746 5746 5748 5748 5747 5747 5748 5748 5749 5750 5751 5751 5751 5751 5750 5751 5751 5752 5752 5752 5752 5751 5751 5750 5747 5745 5742 5738 5734 5731
5757 5753 5754 5753 5752 5752 5751 5751 5749 5748 5749 5748 5748 5748 5749 5751 5752 5751 5751 5751 5751 5753 5754 5755 5756 5756 5756 5755 5755 5756 5757 5757 5757 5757 5757 5756 5755 5752 5748 5745 5741 5737 5733
5756 5757 5756 5753 5754 5754 5753 5752 5751 5749 5749 5749 5748 5749 5752 5755 5756 5756 5755 5756 5756 5756 5758 5760 5761 5762 5762 5762 5762 5762 5762 5762 5763 5763 5762 5761 5759 5756 5752 5747 5744 5741 5737
5755 5756 5757 5755 5756 5756 5755 5754 5753 5751 5751 5752 5747 5744 5742 5751 5758 5760 5761 5761 5762 5762 5764 5766 5767 5768 5768 5768 5769 5769 5769 5769 5768 5768 5767 5765 5763 5760 5756 5753 5749 5746 5743
5759 5758 5759 5758 5758 5756 5755 5756 5756 5755 5751 5752 5752 5747 5740 5739 5746 5761 5764 5766 5767 5769 5771 5773 5774 5775 5774 5774 5774 5775 5774 5774 5773 5773 5772 5771 5770 5768 5764 5760 5756 5753 5750
5761 5760 5759 5759 5760 5758 5758 5758 5757 5756 5755 5751 5752 5752 5752 5751 5746 5748 5764 5769 5772 5773 5776 5778 5779 5781 5781 5781 5781 5781 5781 5780 5779 5779 5778 5777 5776 5774 5771 5768 5764 5761 5757
5763 5762 5762 5762 5761 5760 5759 5759 5758 5757 5758 5755 5754 5753 5753 5753 5753 5750 5751 5761 5772 5776 5779 5781 5783 5785 5786 5786 5786 5787 5787 5787 5786 5786 5785 5785 5784 5782 5780 5776 5773 5771 5766
5765 5764 5765 5763 5762 5762 5761 5760 5760 5759 5758 5758 5757 5757 5755 5754 5754 5755 5752 5757 5760 5774 5781 5785 5787 5788 5789 5790 5790 5791 5791 5792 5792 5791 5791 5792 5791 5789 5789 5787 5784 5780 5777
5767 5768 5767 5764 5762 5763 5762 5760 5760 5760 5759 5758 5759 5759 5759 5760 5760 5759 5758 5758 5759 5771 5779 5786 5789 5790 5791 5792 5793 5794 5795 5794 5794 5795 5797 5797 5797 5796 5794 5793 5791 5788 5783
5773 5773 5771 5769 5766 5764 5763 5762 5761 5761 5761 5760 5760 5762 5762 5763 5763 5763 5761 5760 5760 5764 5772 5779 5789 5790 5791 5793 5794 5795 5795 5796 5796 5797 5800 5802 5802 5802 5801 5799 5797 5794 5790
5778 5777 5775 5773 5770 5768 5766 5764 5762 5761 5761 5761 5761 5762 5763 5764 5765 5766 5767 5765 5763 5758 5763 5777 5780 5788 5791 5792 5793 5794 5794 5796 5798 5800 5802 5803 5803 5805 5805 5803 5800 5798 5795
5778 5778 5776 5775 5773 5772 5771 5767 5765 5764 5763 5763 5763 5763 5763 5764 5765 5766 5767 5766 5766 5764 5761 5773 5780 5785 5789 5792 5793 5794 5796 5797 5800 5801 5804 5806 5806 5808 5808 5805 5803 5801 5798
5780 5779 5778 5777 5774 5774 5773 5771 5769 5768 5767 5766 5765 5765 5765 5765 5765 5766 5767 5767 5767 5768 5766 5774 5778 5785 5787 5790 5793 5795 5797 5798 5800 5803 5805 5808 5809 5809 5807 5807 5805 5803 5800
5782 5781 5780 5779 5779 5776 5775 5774 5772 5772 5770 5768 5768 5767 5768 5769 5768 5769 5769 5768 5769 5770 5769 5769 5777 5782 5785 5789 5790 5794 5796 5798 5799 5803 5806 5807 5808 5807 5805 5805 5804 5801 5798
5785 5784 5782 5781 5781 5781 5779 5778 5777 5776 5774 5773 5772 5770 5771 5771 5770 5770 5770 5770 5771 5773 5772 5771 5774 5779 5784 5787 5791 5794 5796 5798 5799 5802 5804 5806 5807 5807 5804 5802 5800 5798 5796
5785 5787 5787 5785 5784 5785 5784 5782 5779 5779 5778 5776 5775 5774 5773 5772 5772 5773 5772 5772 5773 5772 5772 5772 5774 5777 5781 5787 5787 5788 5791 5796 5797 5802 5805 5805 5806 5804 5801 5799 5796 5795 5793
5783 5786 5788 5788 5786 5786 5786 5784 5783 5782 5781 5780 5779 5778 5776 5776 5775 5776 5774 5774 5773 5771 5772 5774 5775 5777 5780 5781 5783 5787 5785 5791 5797 5798 5801 5804 5805 5802 5798 5794 5791 5790 5789
5781 5782 5784 5787 5788 5789 5789 5788 5786 5784 5784 5783 5782 5781 5780 5779 5777 5777 5777 5776 5776 5774 5772 5772 5775 5775 5779 5779 5784 5785 5785 5785 5785 5796 5797 5802 5804 5803 5798 5793 5788 5786 5785
5782 5781 5785 5786 5788 5790 5790 5789 5788 5787 5786 5786 5786 5784 5783 5784 5782 5781 5781 5781 5780 5779 5779 5779 5778 5779 5779 5781 5784 5785 5784 5783 5785 5792 5793 5795 5803 5802 5799 5794 5788 5784 5782
5782 5782 5782 5787 5789 5792 5790 5789 5788 5788 5788 5790 5789 5789 5787 5787 5786 5784 5783 5783 5783 5783 5782 5779 5781 5783 5785 5785 5785 5785 5785 5786 5788 5791 5793 5790 5804 5803 5797 5793 5787 5785 5782
5781 5785 5785 5785 5789 5793 5792 5790 5785 5787 5788 5790 5791 5792 5792 5790 5789 5785 5783 5782 5783 5784 5785 5785 5786 5788 5789 5787 5786 5783 5781 5780 5785 5787 5792 5791 5797 5796 5793 5790 5784 5780 5776
5781 5783 5785 5790 5794 5796 5795 5793 5787 5788 5788 5790 5791 5793 5793 5794 5790 5785 5784 5783 5782 5785 5784 5787 5788 5788 5790 5789 5786 5782 5783 5779 5782 5783 5790 5786 5790 5789 5790 5793 5787 5779 5776